User: anonymous   Login
Location: Unspecified
(0.0000°N, 0.0000°E)
Time: 11:52:15
(UTC+00:00)
Language:

USA 153 - Orbit

View from above orbital plane
View from above orbital plane
View from above satellite
View from above satellite

Ground track
Ground track

The orbit data is extracted from the following two-line orbital elements,

1 26575U 00065A   17165.26836864 0.00000000  00000-0  00000-0 0    02
2 26575   6.1250  56.0170 0004318 282.1810  77.7763  1.00270000    05
Epoch (UTC): 14 June 2017 06:26:27
Eccentricity: 0.0004318
inclination: 6.1250°
perigee height: 35768 km
apogee height: 35805 km
right ascension of ascending node: 56.0170°
argument of perigee: 282.1810°
revolutions per day: 1.00270000
mean anomaly at epoch: 77.7763°
orbit number at epoch: 0

The dashed part of the orbit path shows where the satellite is in the earth's shadow,  

DLR